COSMOS 2251 DEB, 34976

Orbit data source: Space-Track

COSMOS 2251 DEB, 34976 is space debris in LEO originally from a launch on Wed, 16 Jun 1993 UTC launched from the Plesetsk Missile And Space Complex (PKMTR). The debris from Iridium 33, an American commercial communications satellite, has been tracked extensively since its accidental collision with the defunct Russian satellite Cosmos 2251 in 2009. This event, occurring at high speed in low Earth orbit (LEO), generated thousands of pieces of space debris, significantly increasing the risk of further collisions. The Iridium 33 debris cloud has impacted space traffic management and orbital debris mitigation strategies, making it a subject of ongoing study in space situational awareness.

Loading next visibility...
Identifier
34976, 1993-036AFF
Orbit
LEO
Country
Flag of CISCIS
Related business
Manufacturer
Unknown
Mission
Spacecraft
Bus & Motor
Unknown
Mass
Unknown
Launch date (UTC)
1993-06-16 (33 years ago)
Launch vehicle
Unknown
Launch site
Plesetsk Missile And Space Complex (PKMTR)
Object type
Payload
Rocket body
Debris
Shape & HBR
Unknown shape, 0.1 m
Radar Cross Section
Small (<0.1 m²)

Expand to show TLE details & history
Last TLE update: 20 hours ago

TLE from 20 hours ago
0 COSMOS 2251 DEB
1 34976U 93036AFF 26061.68841815  .00007056  00000-0  96061-3 0  9999
2 34976  74.0576 149.5916 0044757 180.2269 331.1053 14.78205928894542
Epoch: 2026-03-02T16:31Z
TLE epoch observation values (Epoch: 2026-03-02T16:31:19.328Z)
Latitude
27.75617°
Longitude
-87.31588°
Altitude
610.673 km
Speed
7.571 km/s
True Right ascension
21h 23m 58s
True Declination
27° 36' 42"
Sunlit
Object was in daylight at epoch
Visualization orbit readout
Latitude
Unknown
Longitude
Unknown
Altitude
Unknown
Speed
Unknown
Apparent Right ascension
Unknown
Apparent Declination
Unknown
Sunlit
N/A
Visualization observer readout
Local Sidereal Time
16:19:23
Azimuth
Unknown
Elevation
Unknown
Doppler factor
Unknown
Orbital elements
Apogee altitude
663.946 km
Perigee altitude
601.191 km
Semi-major axis
7,010.705 km
Eccentricity
0.00448
Inclination
74.0576°
RAAN
149.5916°
Arg. of periapsis
180.2269°
True anomaly
330.85626°
Mean anomaly
331.1053°
Eccentric anomaly
330.9809°
Mean motion
3.69744 °/min
Orbital period
97.36 mins
BSTAR
0.00096061
Loading maneuver chart data...
Computing Atmospheric mass density...

Documentation

Showing up to 5 results
|